Location: Apeadero de Los Molinos-Guadarrama
(40.7091°N, 4.0689°W)
Time: 11:55:26
(UTC+00:00)

Sich 1 - Pass Details

Date: 14 May 2021
Orbit: 595 x 624 km, 82.5° (Epoch: 18 June)

Event Time Altitude Azimuth Distance (km) Brightness Sun altitude
Rises 20:22:20 0° 349° (NNW) 2,874 7.3 -10.0°
Reaches altitude 10° 20:24:33 10° 346° (NNW) 1,970 6.4 -10.4°
Maximum altitude 20:28:52 64° 265° (W) 680 3.5 -11.0°
Drops below altitude 10° 20:33:11 10° 184° (S) 1,972 5.3 -11.7°
Enters shadow 20:34:51 - 182° (S) 2,647 6.0 -11.9°
